Regional Weather Roundup
Issued by NWS

Home | Current Version | Previous Version | Text Only | Print | Product List | Glossary On
Versions: 1 2 3 4 5 6 7 8 9 10 11 12 13 14 15 16 17 18 19 20 21 22 23 24 25 26 27 28 29 30 31 32 33 34 35 36 37 38 39 40 41 42 43 44 45 46 47 48 49 50
000
ASUS43 KTOP 291408
RWRKS

WEATHER ROUNDUP FOR KANSAS
NATIONAL WEATHER SERVICE GOODLAND KS
900 AM CDT SAT APR 29 2017

NOTE:  "FAIR" INDICATES FEW OR NO CLOUDS BELOW 12,000 FEET WITH NO
SIGNIFICANT WEATHER AND/OR OBSTRUCTIONS TO VISIBILITY.

KSZ001>006-013>018-027>032-041>047-291500-
NORTHWEST KANSAS

CITY           SKY/WX    TMP DP  RH WIND       PRES   REMARKS
GOODLAND       LGT SNOW  32  32 100 N20       30.07R VSB 1   WCI  20
HAYS           CLOUDY    39  37  92 NE23G31   29.93F WCI  28
HILL CITY      CLOUDY    38  36  92 N21G33    29.99F WCI  28
RUSSELL        LGT RAIN  40  39  97 NE23G32   29.91F FOG     WCI  30
$$

KSZ061>065-074>080-084>089-291500-
SOUTHWEST KANSAS

CITY           SKY/WX    TMP DP  RH WIND       PRES   REMARKS
DODGE CITY     MIX PCPN  37  36  96 N22G31    29.88R FOG     WCI  26
ELKHART          N/A     31  30  96 N15         N/A  WCI  20
GREAT BEND     LGT RAIN  40  39  97 NE23      29.89R WCI  30
LIBERAL        LGT RAIN  34  33  96 N16G23    29.93R WCI  24
PRATT          LGT RAIN  38  37  96 N23G29    29.85R WCI  27
$$

KSZ066>073-081>083-090>101-291500-
SOUTHEAST KANSAS

CITY           SKY/WX    TMP DP  RH WIND       PRES   REMARKS
CHANUTE        TSTM      50  48  93 N21G30    29.77R FOG
COFFEYVILLE    LGT RAIN  53  51  93 NE25      29.71R
HUTCHINSON     HVY RAIN  42  40  92 NE17G28   29.85R FOG
MEDICINE LODGE   N/A     41  39  93 N17G24    29.83R
NEWTON         LGT RAIN  42  41  96 N18G25    29.85F
PARSONS        CLOUDY    53  50  89 N15G29    29.74R THUNDER
WICHITA INTL   RAIN      45  43  93 N17G25    29.87R FOG
WICHITA JABRA  LGT RAIN  44  43  96 N17G26    29.84R
WICHITA MCCONL LGT RAIN  44  42  91 N21G26    29.83R
WINFIELD       RAIN      46  44  93 N16G28    29.81R FOG
$$

KSZ007>012-019>026-033>040-048>060-102>105-291500-
NORTHEAST KANSAS

CITY           SKY/WX    TMP DP  RH WIND       PRES   REMARKS
CONCORDIA      LGT RAIN  40  39  97 NE17      29.95F WCI  31
EMPORIA        RAIN      44  44 100 N14G23    29.86S FOG
LAWRENCE       LGT RAIN  47  46  97 N9G18     29.89S
MANHATTAN      LGT RAIN  44  42  93 NE14      29.93F
MARYSVILLE     RAIN      41  39  93 NE18      29.97F
OLATHE IND     LGT RAIN  47  46  97 NE10      29.90R
OLATHE EXE     LGT RAIN  46  46 100 NE9       29.89R
SALINA         LGT RAIN  44  41  89 NE14      29.93S
TOPEKA BILLARD LGT RAIN  45  45 100 N12G24    29.90F
TOPEKA FORBES  RAIN      46  45  96 N12G20    29.89S FOG
$$




USA.gov is the U.S. government's official web portal to all federal, state and local government web resources and services.